| time (UTC) | temp C | wind direction | speed KPH | gust KPH | rain 1hr cm | rain 24hr cm | rain mn cm | humidity % | barometer mb |
| 20260502161553 | 19 | 103 | 3.2 | 14.5 | 0.00 | 0.08 | 0.03 | 64 | 1021.4 |
| 20260502151621 | 17 | 360 | 9.7 | 19.3 | 0.00 | 0.08 | 0.03 | 75 | 1021.5 |
| 20260502123051 | 12 | 37 | 11.3 | 20.9 | 0.00 | 0.05 | 0.00 | 93 | 1019.3 |
| 20260502121546 | 11 | 27 | 9.7 | 17.7 | 0.00 | 0.05 | 0.00 | 93 | 1019.2 |
| 20260502114554 | 11 | 16 | 11.3 | 20.9 | 0.00 | 0.08 | 0.00 | 93 | 1018.7 |
| 20260502113051 | 11 | 17 | 4.8 | 16.1 | 0.00 | 0.08 | 0.00 | 93 | 1018.4 |
| 20260502111548 | 11 | 360 | 9.7 | 17.7 | 0.00 | 0.08 | 0.00 | 93 | 1018.4 |
| 20260502110047 | 11 | 28 | 3.2 | 12.9 | 0.00 | 0.08 | 0.00 | 93 | 1018.3 |
| 20260502104545 | 11 | 0 | 0.0 | 9.7 | 0.00 | 0.08 | 0.00 | 93 | 1018.1 |
| 20260502103102 | 11 | 0 | 3.2 | 16.1 | 0.00 | 0.08 | 0.00 | 93 | 1018.1 |
| 20260502101559 | 11 | 0 | 6.4 | 16.1 | 0.00 | 0.08 | 0.00 | 93 | 1018.1 |
| 20260502100113 | 11 | 34 | 4.8 | 17.7 | 0.00 | 0.08 | 0.00 | 93 | 1017.9 |
| 20260502070051 | 11 | 15 | 3.2 | 12.9 | 0.00 | 0.10 | 0.00 | 94 | 1016.8 |
| 20260502064557 | 11 | 0 | 3.2 | 8.0 | 0.00 | 0.10 | 0.00 | 93 | 1017.0 |
| 20260502063052 | 11 | 0 | 0.0 | 11.3 | 0.00 | 0.10 | 0.00 | 93 | 1016.8 |
| 20260502061600 | 11 | 27 | 3.2 | 8.0 | 0.00 | 0.10 | 0.00 | 93 | 1017.1 |
| 20260502060050 | 11 | 26 | 3.2 | 11.3 | 0.00 | 0.10 | 0.00 | 93 | 1017.2 |
| 20260502054548 | 11 | 0 | 0.0 | 6.4 | 0.00 | 0.13 | 0.00 | 92 | 1017.2 |
| 20260502053052 | 11 | 0 | 0.0 | 6.4 | 0.00 | 0.13 | 0.00 | 92 | 1017.2 |
| 20260502051548 | 11 | 72 | 0.0 | 6.4 | 0.00 | 0.13 | 0.00 | 92 | 1017.3 |
| 20260502050045 | 11 | 0 | 1.6 | 11.3 | 0.00 | 0.13 | 0.00 | 91 | 1017.0 |
| 20260502044542 | 11 | 122 | 0.0 | 20.9 | 0.00 | 0.18 | 0.13 | 91 | 1017.1 |
| 20260502043059 | 11 | 64 | 1.6 | 14.5 | 0.00 | 0.18 | 0.13 | 92 | 1017.1 |
| 20260502041553 | 11 | 61 | 3.2 | 14.5 | 0.00 | 0.18 | 0.13 | 92 | 1017.4 |
| 20260502040058 | 12 | 63 | 4.8 | 14.5 | 0.00 | 0.18 | 0.13 | 93 | 1017.3 |
| 20260502034547 | 12 | 27 | 4.8 | 16.1 | 0.00 | 0.25 | 0.13 | 93 | 1017.3 |
| 20260502033048 | 12 | 52 | 4.8 | 20.9 | 0.03 | 0.25 | 0.13 | 93 | 1016.9 |
| 20260502031548 | 12 | 15 | 3.2 | 17.7 | 0.03 | 0.25 | 0.13 | 94 | 1016.5 |
| 20260502024602 | 12 | 11 | 4.8 | 16.1 | 0.03 | 0.30 | 0.13 | 94 | 1015.8 |
| 20260502023045 | 12 | 39 | 6.4 | 22.5 | 0.00 | 0.28 | 0.10 | 94 | 1016.0 |
| 20260502021600 | 12 | 17 | 4.8 | 12.9 | 0.00 | 0.28 | 0.10 | 94 | 1015.9 |
| 20260502020049 | 12 | 49 | 4.8 | 22.5 | 0.00 | 0.28 | 0.10 | 94 | 1015.5 |
| 20260502014549 | 12 | 39 | 4.8 | 20.9 | 0.00 | 0.28 | 0.10 | 94 | 1015.0 |
| 20260502013047 | 12 | 36 | 9.7 | 17.7 | 0.00 | 0.28 | 0.10 | 94 | 1014.5 |
| 20260502011548 | 12 | 34 | 6.4 | 16.1 | 0.00 | 0.28 | 0.10 | 94 | 1014.7 |
| 20260502010108 | 12 | 41 | 12.9 | 25.7 | 0.00 | 0.28 | 0.10 | 95 | 1014.9 |
| 20260502004550 | 12 | 24 | 8.0 | 19.3 | 0.00 | 0.28 | 0.10 | 94 | 1014.5 |
| 20260502003049 | 12 | 13 | 3.2 | 8.0 | 0.00 | 0.28 | 0.10 | 94 | 1014.5 |
| 20260502001548 | 12 | 39 | 1.6 | 9.7 | 0.00 | 0.28 | 0.10 | 94 | 1014.4 |
| 20260502000049 | 12 | 86 | 3.2 | 19.3 | 0.00 | 0.28 | 0.10 | 94 | 1013.6 |
| 20260501234556 | 12 | 53 | 3.2 | 12.9 | 0.00 | 0.28 | 0.10 | 94 | 1013.7 |
| 20260501233054 | 12 | 57 | 6.4 | 20.9 | 0.00 | 0.28 | 0.10 | 94 | 1012.4 |
| 20260501231548 | 12 | 42 | 4.8 | 19.3 | 0.00 | 0.28 | 0.10 | 94 | 1012.2 |
| 20260501230058 | 12 | 44 | 4.8 | 24.1 | 0.00 | 0.28 | 0.10 | 94 | 1012.3 |
| 20260501224548 | 13 | 58 | 11.3 | 29.0 | 0.00 | 0.28 | 0.10 | 93 | 1011.6 |
| 20260501223054 | 13 | 0 | 6.4 | 20.9 | 0.00 | 0.28 | 0.10 | 93 | 1013.5 |
| 20260501221552 | 13 | 74 | 3.2 | 17.7 | 0.00 | 0.28 | 0.10 | 94 | 1013.1 |
| 20260501220056 | 14 | 132 | 4.8 | 16.1 | 0.00 | 0.28 | 0.10 | 94 | 1013.4 |
| 20260501214554 | 14 | 33 | 6.4 | 22.5 | 0.00 | 0.28 | 0.10 | 94 | 1012.9 |
| 20260501213051 | 14 | 0 | 4.8 | 19.3 | 0.00 | 0.28 | 0.10 | 94 | 1011.7 |
| 20260501211557 | 14 | 60 | 3.2 | 17.7 | 0.00 | 0.28 | 0.10 | 94 | 1012.3 |
| 20260501210049 | 14 | 67 | 4.8 | 14.5 | 0.00 | 0.28 | 0.10 | 93 | 1012.4 |
| 20260501204616 | 14 | 27 | 0.0 | 9.7 | 0.00 | 0.28 | 0.10 | 93 | 1012.3 |
| 20260501203047 | 15 | 96 | 1.6 | 14.5 | 0.00 | 0.28 | 0.10 | 92 | 1012.5 |
| 20260501201549 | 15 | 50 | 9.7 | 20.9 | 0.00 | 0.28 | 0.10 | 92 | 1012.0 |
| 20260501200049 | 15 | 38 | 1.6 | 14.5 | 0.00 | 0.28 | 0.10 | 92 | 1012.5 |
| 20260501194558 | 15 | 103 | 3.2 | 19.3 | 0.00 | 0.28 | 0.10 | 93 | 1011.2 |
| 20260501193047 | 15 | 0 | 3.2 | 17.7 | 0.00 | 0.28 | 0.10 | 93 | 1011.9 |
| 20260501191552 | 15 | 9 | 8.0 | 29.0 | 0.00 | 0.28 | 0.10 | 93 | 1010.5 |
| 20260501190048 | 15 | 87 | 11.3 | 40.2 | 0.00 | 0.28 | 0.10 | 94 | 1010.4 |
| 20260501184550 | 15 | 57 | 8.0 | 33.8 | 0.00 | 0.30 | 0.10 | 94 | 1009.5 |
| 20260501183053 | 15 | 117 | 16.1 | 32.2 | 0.00 | 0.30 | 0.10 | 94 | 1010.0 |
| 20260501181552 | 15 | 50 | 4.8 | 24.1 | 0.03 | 0.30 | 0.10 | 95 | 1010.9 |
| 20260501180048 | 15 | 59 | 9.7 | 24.1 | 0.03 | 0.30 | 0.10 | 95 | 1012.0 |
| 20260501174547 | 15 | 55 | 9.7 | 24.1 | 0.03 | 0.30 | 0.10 | 95 | 1011.8 |
| 20260501173052 | 15 | 39 | 8.0 | 24.1 | 0.03 | 0.30 | 0.10 | 96 | 1012.3 |
| 20260501171550 | 15 | 75 | 9.7 | 27.4 | 0.00 | 0.28 | 0.08 | 96 | 1012.7 |
| 20260501170049 | 15 | 52 | 4.8 | 16.1 | 0.00 | 0.28 | 0.08 | 96 | 1013.5 |
| 20260501164553 | 15 | 74 | 6.4 | 19.3 | 0.00 | 0.28 | 0.08 | 96 | 1014.0 |
| 20260501163048 | 15 | 109 | 4.8 | 16.1 | 0.00 | 0.28 | 0.08 | 96 | 1014.3 |